User: anonymous   Login
Location: Krasnoyarskiy Pitomnik
(51.1333°N, 71.6167°E)
Time: 15:57:03
(UTC+00:00)
Language:

NOSS 2-2 (C) - Orbit

View from above orbital plane
View from above orbital plane
View from above satellite
View from above satellite

Ground track
Ground track

The orbit data is extracted from the following two-line orbital elements,

1 21799U 91076C   22020.23495357 0.00000500  00000-0  74319-4 0    01
2 21799  63.3226  73.0949 0880072  46.9380 313.0620 13.41723784    04
Epoch (UTC): 20 January 2022 05:38:19
Eccentricity: 0.0880072
inclination: 63.3226°
perigee height: 444 km
apogee height: 1761 km
right ascension of ascending node: 73.0949°
argument of perigee: 46.9380°
revolutions per day: 13.41723784
mean anomaly at epoch: 313.0620°
orbit number at epoch: 0

The dashed part of the orbit path shows where the satellite is in the earth's shadow,  

DLR